Regional Weather Roundup
Issued by NWS

Home | Current Version | Previous Version | Graphics & Text | Print | Product List | Glossary On
Versions: 1 2 3 4 5 6 7 8 9 10 11 12 13 14 15 16 17 18 19 20 21 22 23 24 25 26 27 28 29 30 31 32 33 34 35 36 37 38 39 40 41 42 43 44 45 46 47 48 49 50
000
ASUS43 KLMK 282010
RWRKY
KENTUCKY REGIONAL WEATHER ROUNDUP
NATIONAL WEATHER SERVICE LOUISVILLE KY
300 PM EST SAT FEB 28 2015

NOTE "FAIR" INDICATES FEW OR NO CLOUDS BELOW 12,000 FEET
WITH NO SIGNIFICANT WEATHER AND/OR OBSTRUCTIONS TO VISIBILITY.

KYZ001>023-026-027-061>063-070>075-282100-
WESTERN AND SOUTH CENTRAL KENTUCKY

CITY           SKY/WX    TMP DP  RH WIND       PRES   REMARKS
PADUCAH        CLOUDY    32  17  54 E7        30.49F WCI  26
HENDERSON      PTSUNNY   32  16  51 E5        30.53F WCI  27
OWENSBORO      PTSUNNY   35  15  44 SE9       30.53F WCI  28
HOPKINSVILLE   MOSUNNY   33  19  56 E10       30.49F WCI  25
BOWLING GREEN  MOSUNNY   39  19  44 E12       30.52F WCI  32
GLASGOW        PTSUNNY   38  19  46 NE9       30.51F WCI  31
$$

KYZ024-025-028>034-038-045-046-053-282100-
NORTH CENTRAL KENTUCKY

CITY           SKY/WX    TMP DP  RH WIND       PRES   REMARKS
LOUISVILLE/SDF PTSUNNY   34  12  40 SE6       30.56F WCI  29
LOUISVILLE/LOU CLOUDY    33  11  39 E6        30.57F WCI  28
FORT KNOX      MOSUNNY   35  12  39 E7        30.51F WCI  29
$$

KYZ035>037-039>044-047>052-055>060-089>105-282100-
NORTHEAST KENTUCKY

CITY           SKY/WX    TMP DP  RH WIND       PRES   REMARKS
LEXINGTON      MOSUNNY   34  16  47 E8        30.55F WCI  27
COVINGTON      CLOUDY    27   8  44 E9        30.59F WCI  18
FRANKFORT        N/A     30  14  51 E12       30.55F WCI  20
$$

KYZ054-064>069-076>088-106>120-282100-
SOUTHEAST KENTUCKY

CITY           SKY/WX    TMP DP  RH WIND       PRES   REMARKS
JACKSON        MOSUNNY   39  13  34 CALM      30.54F
LONDON         PTSUNNY   42  16  34 CALM      30.53F
SOMERSET       CLOUDY    41  19  42 CALM      30.54F
MIDDLESBORO    MOSUNNY   44  23  43 E5        30.53F
MONTICELLO     CLOUDY    43  23  45 NE8       30.54F
$$



USA.gov is the U.S. government's official web portal to all federal, state and local government web resources and services.